Preview of NWS' New Version of Forecast
This preview is not operational and should not be used for support decisions.
Latest weather observations around

Tucson, Tucson International Airport (KTUS)

Using English Units (Switch to International System of Units)
Date/ Time (MST) Wind (mph) Vis. (mi) Weather Sky Cond. Temp (°F) Rel. Humidity Wind Chill (°F) Heat Index (°F) Pressure Precip. (in)
Air Dwpt 6 hour Altimeter (inHg) Sea level (inHg) 1 hr 3 hr 6 hr
Max Min
Aug 21 13:14 NNW 9 10 Clear CLR 106 48     15%   103 29.89        
Aug 21 12:53 5 10 Clear CLR 104 48     15%   101 29.9 29.72      
Aug 21 11:53 6 10 Clear CLR 102 52     19%   100 29.93 29.75      
Aug 21 10:53 SE 5 10 Clear CLR 100 53     21%   98 29.95 29.77      
Aug 21 09:53 Calm 10 Clear CLR 97 54     24%   95 29.96 29.78      
Aug 21 08:53 SSE 3 10 Clear CLR 92 52     26%   89 29.96 29.79      
Aug 21 07:53 S 8 10 Clear CLR 88 49     26%   85 29.96 29.78      
Aug 21 06:53 SE 7 10 Clear CLR 81 46     29%   80 29.95 29.78      
Aug 21 05:53 SSE 6 10 Clear CLR 78 45     31%   77 29.93 29.77      
Aug 21 04:53 SSE 7 10 Clear CLR 80 44     28%   79 29.93 29.75      
Aug 21 03:53 Calm 10 Clear CLR 79 45     30%   78 29.92 29.75      
Aug 21 02:53 Calm 10 Clear CLR 84 43     24%   81 29.92 29.74      
Aug 21 01:53 SSW 3 10 Clear CLR 83 44     26%   81 29.92 29.75      
Aug 21 00:53 S 8 10 Clear CLR 86 43     22%   83 29.93 29.75      
Aug 20 23:53 Calm 10 Clear CLR 89 43     20%   85 29.91 29.73      
Aug 20 22:53 NW 6 10 Clear CLR 92 42     18%   88 29.89 29.71      
Aug 20 21:53 NNW 7 10 Clear CLR 95 42     16%   91 29.89 29.71      
Aug 20 20:53 NNW 7 10 Clear CLR 97 42     15%   93 29.88 29.71      
Aug 20 19:53 NNW 9 10 Clear CLR 99 42     14%   95 29.87 29.7      
Aug 20 18:53 NNW 11 10 Clear CLR 102 42     13%   97 29.86 29.69      
Aug 20 17:53 NNW 10 10 Clear CLR 106 41     11%   101 29.85 29.68      
Aug 20 16:53 6 10 Clear CLR 107 41     11%   102 29.86 29.69      
Aug 20 15:53 NW 5 10 Clear CLR 107 40     10%   101 29.87 29.69      
Aug 20 14:53   10 Clear CLR 108 42     11%   103 29.89 29.71      
Aug 20 13:53 NNE 6 10 Clear CLR 107 43     12%   102 29.92 29.74      
Aug 20 12:53 NW 5 10 Clear CLR 105 39     11%   99 29.94 29.76      
Aug 20 11:53 3 10 Clear CLR 102 36     10%   96 29.97 29.79      
Aug 20 10:53 3 10 Clear CLR 98 38     13%   93 29.99 29.82      
Aug 20 09:53 Calm 10 Clear CLR 93 40     16%   89 30 29.83      
Aug 20 08:53 Calm 10 Clear CLR 88 41     19%   84 30.01 29.84      
Aug 20 07:53 SSE 5 10 Clear CLR 82 46     28%   80 30 29.84      
Aug 20 06:53 SSE 6 10 Clear CLR 77 46     33%   76 30 29.84      
Aug 20 05:53 SE 7 10 Clear CLR 75 44     33%   74 29.99 29.82      
Aug 20 04:53 SSE 5 10 Clear CLR 76 42     30%   75 29.96 29.8      
Aug 20 03:53 SSE 6 10 Clear CLR 78 41     27%   77 29.95 29.79      
Aug 20 02:53 S 6 10 Clear CLR 79 41     26%   78 29.95 29.78      
Aug 20 01:53 SSE 6 10 Clear CLR 81 39     22%   80 29.94 29.78      
Aug 20 00:53 SE 5 10 Clear CLR 83 42     24%   81 29.94 29.77      
Aug 19 23:53 SSE 6 10 Clear CLR 85 40     20%   82 29.95 29.78      
Aug 19 22:53 SW 3 10 Clear   89 37     16%   85 29.95 29.78      
Aug 19 21:53 NW 6 10 Clear CLR 91 35     14%   87 29.95 29.78      
Aug 19 20:53 NNW 9 10 Clear CLR 94 34     12%   89 29.94 29.77      
Aug 19 19:53 NNW 7 10 Clear CLR 96 35     12%   91 29.92 29.75      
Aug 19 18:53 NNW 11 10 Clear CLR 99 38     12%   94 29.91 29.74      
Aug 19 17:53 NNW 11 10 Clear CLR 102 39     12%   97 29.91 29.73      
Aug 19 16:53 NNW 8 10 Clear CLR 103 40     12%   98 29.91 29.74      
Aug 19 15:53 5 10 Clear CLR 103 44     14%   99 29.93 29.75      
Aug 19 14:53 N 6 10 Clear CLR 103 43     13%   98 29.94 29.77      
Aug 19 13:53   10 Clear CLR 100 42     14%   96 29.97 29.8      
Aug 19 12:53 NNW 6 10 Clear CLR 100 47     17%   96 29.99 29.81      
Aug 19 11:53 NNE 5 10 Clear CLR 99 48     18%   96 30.01 29.84      
Aug 19 10:53 Calm 10 Clear CLR 96 48     20%   93 30.03 29.86      
Aug 19 09:53 NW 5 10 Clear CLR 91 55     30%   89 30.04 29.87      
Aug 19 08:53 SSW 6 10 Clear CLR 87 58     37%   86 30.04 29.87      
Aug 19 07:53 Calm 10 Clear CLR 84 58     41%   83 30.03 29.87      
Aug 19 06:53 SE 5 10 Clear CLR 80 58     47%   80 30.01 29.85      
Aug 19 05:53 SE 3 10 Clear CLR 79 58     49%   79 30.01 29.84      
Aug 19 04:53 Calm 10 Clear CLR 81 57     44%   81 29.99 29.82      
Aug 19 03:53 Calm 10 Clear CLR 81 58     45%   81 29.98 29.81      
Aug 19 02:53 SE 6 10 Clear CLR 83 57     41%   82 29.97 29.8      
Aug 19 01:53 SE 7 10 Clear CLR 83 57     41%   82 29.97 29.8      
Aug 19 00:53 SSE 3 10 Clear CLR 84 57     40%   83 29.97 29.8      
Aug 18 23:53 S 8 10 Clear CLR 84 57     40%   83 29.97 29.81      
Aug 18 22:53 S 6 10 Clear CLR 86 55     35%   84 29.97 29.81      
Aug 18 21:53 SSW 9 10 Clear CLR 89 53     29%   87 29.95 29.79      
Aug 18 20:53 Calm 10 Clear CLR 92 48     22%   89 29.93 29.76      
Aug 18 19:53 NNW 6 10 Clear CLR 94 48     21%   90 29.92 29.75      
Aug 18 18:53 NNW 9 10 Clear CLR 97 45     17%   93 29.9 29.73      
Aug 18 17:53 WNW 8 10 Clear CLR 100 40     13%   95 29.9 29.73      
Aug 18 16:53 WNW 7 10 Clear CLR 100 43     14%   96 29.91 29.74      
Aug 18 15:53 N 7 10 Clear CLR 102 40     12%   97 29.91 29.73      
Aug 18 14:53 NW 5 10 Clear CLR 100 44     15%   96 29.93 29.76      
Aug 18 13:53 NW 5 10 Clear CLR 98 47     18%   94 29.96 29.79      
May 15 03:53 S 7 10 Clear CLR 64 23     21%     29.98 29.85      
May 14 07:53 SE 6 10 Clear CLR 74 36     25%   72 29.99 29.86      
May 13 19:53 WSW 14 10 Clear CLR 81 40     23%   80 29.92 29.8      
May 13 14:53 WSW 17 10 Clear CLR 88        %     29.93 29.8      
May 13 13:53   10 Clear CLR 90 22     8%   85 29.93 29.8      
May 12 16:53 SSW 23 10 Clear and Windy CLR 90 24     9%   85 29.85 29.7      
May 11 21:55 SSW 16 10 Clear CLR 84 39     20%   81 29.84        
May 11 12:53   10 Clear CLR 96 29     9%   90 29.8 29.64      
May 11 10:53   10 Clear CLR 93 29     10%   88 29.85 29.69      
Jun 11 15:53 WSW 14 10 Clear CLR 96 20     6%   89 29.84 29.69      
Jun 11 10:53 SW 11 10 Clear CLR 93 20     7%   87 29.9 29.74      
Jun 10 15:53 S 15 10 Clear CLR 102 3     3%   94 29.78 29.62      
Jun 08 21:53 NNW 8 10 Clear CLR 90 30     12%   86 29.92 29.75      
Jun 08 16:53 N 14 10 Clear CLR 101 29     8%   94 29.88 29.71      
Jun 08 05:53 SE 10 10 Clear CLR 79 50     36%   78 30 29.85      
Jun 07 16:30 SSE 17 10 Clear CLR 99 46     17%   95 29.89        
Jun 07 14:53 NW 15 10 Clear CLR 105 40     11%   100 29.89 29.71      
Jun 05 21:53 WNW 9 10 Clear CLR 92 37     15%   88 29.9 29.72